RH
100 100 93 98 100 100 100 100 100 100 100 100 97 94 95 91 90 87 100 100 100 95 86 62 89 40 100 100 81 92 81 87 67 72 62 50 39 51 51 53 57 66 61 57 55 52 47 51 64 42 44 44 41 42
91 97 78 100 100 100 100 100 100 100 100 95 100 100 98 100 100 63 99 88 98 100 100 99 90 80 47 100 100 80 100 81 82 72 80 88 81 73 50 62 61 53 54 54 60 55 57 50 53 51 40 39 38 37
98 98 100 99 98 100 100 100 100 100 100 100 100 99 98 97 100 100 97 100 96 89 86 100 100 100 84 52 100 100 82 99 100 94 93 79 68 97 95 63 70 86 73 62 67 68 56 59 48 50 46 48 40 41
96 82 84 100 100 100 100 100 100 100 100 100 100 100 100 94 90 99 100 100 100 100 100 77 79 100 100 92 69 100 100 100 100 81 100 99 82 49 48 78 86 89 82 86 88 89 82 62 66 68 72 66 63 57
100 100 88 79 98 100 100 100 100 100 100 100 100 100 100 100 100 93 83 100 100 100 100 100 100 100 100 100 100 85 100 100 100 100 97 100 100 96 85 82 82 87 75 85 90 99 93 85 80 93 90 92 85 79
70 100 100 100 98 82 100 100 100 100 100 100 97 100 100 100 100 100 87 86 81 89 100 100 100 100 98 100 100 74 100 100 100 100 100 100 100 100 100 100 100 100 80 74 91 90 97 100 100 100 100 98 90 88
100 92 75 100 100 100 63 91 100 100 100 100 100 84 93 88 96 100 100 90 78 75 72 84 100 100 99 100 100 100 74 98 100 99 100 99 100 100 100 100 100 100 100 100 100 91 94 100 100 100 100 100 100 100
84 98 95 97 91 78 50 47 100 96 96 86 75 91 84 79 85 84 96 100 98 91 73 64 81 94 85 91 89 95 100 98 95 98 100 100 100 100 100 100 100 100 100 99 100 100 100 100 100 100 100 100 100 100
100 77 73 81 70 56 52 48 66 98 90 56 56 78 78 76 78 88 74 72 72 82 71 63 84 100 92 93 80 74 83 83 85 100 98 96 100 100 100 100 93 95 99 99 100 100 100 100 100 100 100 100 100 100
84 100 92 73 59 45 45 48 64 66 62 78 83 61 56 71 65 64 86 73 58 67 71 65 78 71 66 58 58 63 73 78 79 82 94 100 100 100 100 100 100 100 95 90 81 89 94 95 92 96 100 100 99 99
98 100 100 100 100 100 100 100 100 100 97 75 81 79 78 97 100 85 91 78 63 61 73 100 70 63 59 46 50 50 45 38 45 64 77 74 98 100 100 100 99 98 97 94 88 80 73 66 64 55 50 55 63 81
71 87 100 100 88 73 72 100 100 100 100 100 96 69 89 99 78 76 98 100 100 98 100 98 99 71 80 78 48 45 47 54 58 43 44 59 71 76 82 83 82 91 92 86 80 76 68 65 60 68 68 61 67 80
71 62 65 67 80 87 85 77 66 85 92 71 96 83 72 97 86 100 100 100 100 100 99 100 87 78 84 100 92 57 34 30 44 42 47 60 46 43 46 50 55 60 62 63 60 58 59 64 66 68 70 67 61 64
86 94 90 69 66 59 63 72 73 90 99 100 73 55 59 86 100 100 100 100 100 100 100 100 100 100 99 89 93 100 88 55 33 31 62 59 79 62 41 29 30 34 36 39 41 46 51 51 54 58 56 66 72 73
91 86 69 63 68 79 59 57 51 61 75 83 72 62 64 93 87 90 90 100 96 88 87 86 87 96 100 90 75 54 49 45 55 74 65 48 43 45 46 34 35 30 29 32 36 43 50 58 56 57 61 68 80 86
65 66 51 54 76 69 77 65 53 56 46 40 46 52 49 52 90 84 96 92 100 100 75 70 51 34 28 31 28 30 32 36 47 54 44 36 39 34 31 30 39 33 34 38 47 55 59 58 57 57 68 71 79 100
36 37 48 49 46 48 47 46 35 28 30 26 33 38 33 35 48 44 41 31 47 40 19 26 22 16 16 15 16 17 19 32 39 41 31 28 27 23 21 31 32 26 34 41 50 62 61 62 67 66 75 55 85 97
16 21 38 34 24 24 24 25 21 15 13 16 15 22 18 22 20 22 25 21 19 14 13 15 13 10 9 12 14 22 23 20 24 22 19 19 17 19 19 22 21 20 27 38 40 36 40 52 58 74 50 43 95 93
9 9 9 9 9 10 9 9 9 8 7 8 10 11 12 16 17 12 9 8 8 8 9 9 7 7 9 10 10 11 11 11 11 11 8 10 12 13 11 13 14 18 24 25 29 35 41 56 62 40 50 73 85 61
7 8 8 8 8 7 6 6 5 5 6 7 7 8 6 7 8 8 8 7 6 6 6 6 6 6 7 7 6 6 8 8 7 7 6 6 7 9 11 12 12 14 17 20 24 22 22 25 24 27 47 45 31 54
7 7 7 7 6 6 5 4 5 6 6 7 8 6 6 7 7 8 7 7 5 5 5 7 7 6 5 6 6 5 5 5 5 5 6 7 9 8 8 9 10 12 14 16 15 15 16 17 22 28 25 27 32 36
8 8 7 7 6 5 4 4 6 7 6 8 8 8 8 8 9 9 8 6 6 7 9 9 6 6 6 5 5 5 5 5 5 5 4 4 5 6 7 8 9 9 10 12 12 11 12 15 17 19 23 28 27 36
7 7 7 6 6 5 6 6 6 8 8 8 7 6 8 8 10 11 8 8 10 13 12 8 9 7 5 5 6 7 6 4 4 4 4 4 4 5 6 6 8 8 8 9 10 12 14 14 14 16 20 24 21 24
7 7 6 5 5 5 5 6 7 6 7 7 7 7 9 10 10 9 8 11 14 15 10 9 6 5 6 7 8 5 5 3 4 4 4 4 5 5 5 6 6 8 8 8 9 10 11 12 13 15 17 18 20 28
5 5 5 6 6 7 7 7 6 6 7 6 6 7 8 9 8 7 9 13 17 16 8 6 6 7 8 7 5 5 4 3 4 4 4 4 4 5 5 5 6 6 7 8 8 10 12 13 13 14 17 19 21 19
4 5 5 6 7 7 7 6 6 6 6 6 6 8 8 8 7 8 13 17 13 9 7 6 6 7 7 6 5 5 4 4 4 4 4 4 4 5 5 5 6 8 8 8 9 10 11 12 13 14 16 17 15 15
3 4 5 6 7 6 6 6 7 7 8 9 8 8 8 7 8 13 14 11 10 8 5 5 7 8 7 6 6 5 4 4 4 4 4 4 4 4 5 6 6 7 8 9 10 11 11 11 12 14 14 14 12 10
5 6 7 7 6 6 7 8 8 8 9 8 8 7 7 8 11 12 8 6 6 6 7 7 6 7 7 7 6 5 5 4 4 4 4 4 4 4 5 6 7 7 8 8 8 9 10 11 12 12 12 9 9 10
7 8 7 5 5 5 6 7 8 8 8 6 6 5 5 7 8 7 6 5 7 8 7 6 6 8 8 7 6 6 5 5 4 4 4 4 4 5 6 6 7 8 8 8 9 10 11 11 11 9 8 9 10 12
7 5 4 3 3 4 5 5 5 5 5 5 5 6 6 7 6 5 5 6 7 8 7 7 7 7 7 7 6 6 5 5 5 5 5 5 5 6 6 7 7 7 8 9 11 12 11 10 8 8 9 11 14 15
4 3 4 4 4 4 3 4 4 4 4 4 5 6 6 5 5 6 6 6 6 6 7 8 6 7 7 7 6 6 5 5 5 5 5 6 6 6 6 6 7 8 8 9 8 7 7 7 8 9 11 12 13 12
2 3 3 4 3 3 3 3 4 4 4 5 6 6 6 6 6 5 5 5 6 7 8 6 6 6 6 7 7 6 6 6 6 6 6 6 6 6 6 6 6 7 7 6 7 7 7 8 10 11 13 11 10 10
4 3 4 4 4 3 3 3 3 4 5 6 6 6 6 7 10 8 6 7 7 6 6 7 8 8 8 8 7 6 6 6 6 6 6 6 6 6 6 6 6 6 7 7 7 8 9 10 11 12 10 9 10 10
Wind_Speed
50 47 41 44 43 38 35 33 29 25 22 23 19 19 13 18 18 18 11 14 21 25 18 18 19 27 21 21 30 28 27 28 32 32 33 35 33 36 37 36 38 41 44 44 45 47 52 53 54 58 60 62 62 63
58 57 54 50 48 48 45 40 40 39 38 33 30 29 28 20 22 17 18 11 16 26 24 31 23 30 20 21 22 25 29 31 33 30 31 33 31 30 35 38 39 41 44 44 43 48 51 53 53 58 60 64 67 67
61 61 59 60 55 50 51 51 48 45 44 43 42 39 39 41 38 30 19 27 22 25 22 28 29 25 21 27 23 25 32 32 30 33 29 32 33 38 39 38 40 43 44 47 48 50 54 54 57 60 64 66 71 73
68 66 65 65 63 61 59 56 55 54 51 51 49 48 48 46 47 44 38 35 29 28 29 31 28 30 31 29 24 32 36 31 30 38 34 33 32 41 47 44 41 44 45 46 48 49 53 55 55 59 61 66 70 74
78 75 76 71 67 68 69 65 63 62 58 57 57 57 55 53 52 52 50 47 41 35 35 33 30 29 32 29 30 30 38 36 38 41 41 42 37 41 52 51 47 44 48 46 46 51 53 54 57 60 63 65 68 71
85 82 83 83 78 74 74 74 73 72 70 65 64 61 58 59 58 59 56 57 54 49 47 48 47 47 39 42 43 35 37 41 31 37 45 44 41 42 53 52 53 52 55 50 52 54 55 56 58 61 64 66 67 71
92 93 92 93 94 87 85 82 80 79 79 77 75 70 66 66 63 63 62 62 61 59 56 58 61 61 59 55 50 49 46 46 46 41 36 45 48 52 56 55 55 55 58 59 59 59 61 60 59 62 66 68 70 72
102 101 101 97 97 94 89 87 88 86 84 85 83 78 76 74 72 73 71 68 67 70 67 64 67 75 72 70 66 62 60 54 53 53 54 53 54 57 53 54 58 58 61 63 63 64 64 65 65 67 70 71 75 75
105 108 108 105 101 103 102 99 94 92 91 89 89 85 83 81 82 83 79 76 74 74 73 72 73 80 79 81 80 77 74 69 64 64 63 59 65 72 66 67 65 63 66 66 67 67 71 72 73 73 73 76 79 81
113 108 112 112 111 112 104 99 100 99 98 95 95 93 92 94 95 93 91 87 82 79 77 77 88 92 92 89 90 90 84 78 72 67 68 65 67 80 72 70 73 75 75 73 72 73 72 75 77 79 80 82 84 86
120 119 109 110 110 110 105 102 106 107 108 105 103 106 101 99 101 99 96 95 96 92 85 87 98 101 103 101 101 101 99 94 85 76 76 71 73 85 82 77 79 82 82 82 83 81 79 77 78 82 83 83 86 88
126 129 124 125 126 124 125 124 119 119 116 116 116 115 114 112 111 107 101 100 104 106 103 105 113 112 110 112 111 108 105 103 101 93 86 79 89 88 88 86 84 84 85 88 90 89 88 86 86 87 87 88 91 91
139 135 136 136 134 137 137 135 138 132 132 131 130 132 124 120 114 111 109 108 113 116 116 118 124 120 115 119 121 116 112 106 104 104 99 98 103 97 95 92 91 91 92 92 92 93 92 92 92 92 91 93 93 93
146 143 142 141 135 132 132 121 124 136 138 142 142 134 128 123 121 119 119 120 123 124 123 125 126 127 125 123 126 127 128 119 112 107 111 114 116 111 103 101 99 98 98 100 99 97 97 96 96 94 94 93 93 95
150 147 143 131 131 128 129 133 136 134 139 146 143 136 129 124 125 129 129 133 136 136 138 138 137 132 132 133 133 132 129 126 121 123 125 115 112 111 110 104 103 103 103 101 102 102 100 97 96 97 94 94 92 93
149 147 141 135 138 138 137 140 142 139 144 144 136 125 125 127 131 133 137 140 141 144 144 140 138 130 126 131 126 124 123 121 120 122 125 120 115 108 110 104 102 103 101 95 94 97 99 97 96 94 94 92 92 91
140 133 135 139 141 139 141 144 143 138 139 139 124 121 122 120 123 130 132 127 125 129 127 134 131 126 125 121 117 119 117 115 120 120 117 111 104 98 100 95 95 93 89 91 89 92 94 94 94 93 92 87 88 88
122 123 128 134 137 137 135 139 142 137 126 117 112 114 121 120 119 118 118 115 122 123 117 115 117 113 110 110 108 109 115 116 115 114 110 101 98 94 84 87 89 81 80 81 82 85 86 88 88 89 86 83 84 85
115 118 119 124 126 128 126 126 128 127 116 106 99 99 104 108 109 108 109 107 107 111 109 105 103 96 101 105 105 104 106 103 98 95 89 88 88 87 80 81 77 73 74 76 78 79 78 79 82 81 81 80 79 80
108 110 113 114 116 118 119 116 112 106 98 98 98 94 98 93 95 99 99 99 98 101 99 94 92 94 94 94 93 91 93 96 94 86 83 81 81 77 76 79 74 73 71 72 74 74 74 75 78 77 76 75 73 76
100 98 103 110 110 107 109 108 100 92 86 84 80 86 89 86 86 89 92 92 91 88 86 88 88 90 89 86 86 82 79 82 79 78 74 74 77 69 70 70 69 67 69 73 74 73 71 69 69 69 68 71 73 70
90 94 97 101 100 99 96 86 80 82 83 75 72 78 79 81 81 80 81 85 82 78 79 81 83 83 81 80 77 74 74 76 75 71 67 63 63 66 65 67 63 62 63 65 66 63 59 60 61 61 62 65 64 66
91 92 91 90 90 87 74 76 74 73 72 69 73 75 72 72 74 75 75 71 68 74 78 78 79 79 74 72 70 70 71 66 60 58 59 57 56 59 61 58 57 56 56 60 57 52 52 56 57 58 59 60 59 61
87 87 85 83 76 68 63 71 73 72 68 65 70 73 67 73 71 66 61 62 67 74 75 76 73 69 66 64 66 68 68 52 52 54 58 53 51 57 55 55 55 53 56 55 50 50 52 55 53 55 57 55 57 59
76 74 71 66 67 65 69 72 72 71 65 71 72 67 70 71 64 59 57 65 74 73 68 68 63 58 60 63 63 60 55 47 49 53 57 47 49 50 48 47 50 53 51 46 47 46 50 53 53 54 54 53 56 56
62 59 57 57 61 66 66 72 68 68 68 67 64 66 66 62 59 52 60 72 67 63 62 64 58 57 57 55 53 50 47 44 46 52 49 45 47 47 48 47 49 50 43 42 44 47 49 51 53 55 54 55 52 51
47 47 54 58 62 64 63 68 69 66 66 66 66 63 60 55 52 59 71 67 63 61 58 52 51 51 49 47 45 46 44 43 45 46 45 44 43 41 41 43 46 48 42 43 45 48 49 49 50 52 53 50 47 50
44 51 55 67 65 66 64 63 63 60 61 62 60 56 54 54 58 66 60 60 58 55 50 48 47 47 47 47 45 43 41 40 41 44 43 41 39 38 38 43 46 44 43 45 47 46 48 47 49 49 46 45 46 48
48 55 59 59 60 55 55 57 57 60 60 56 54 53 53 55 61 59 56 52 50 50 50 48 47 48 47 43 42 41 40 38 40 42 41 41 39 37 41 42 44 46 47 44 43 43 44 45 44 42 42 43 45 45
55 61 56 53 49 50 55 52 53 52 48 47 48 50 51 54 56 54 52 49 48 48 48 47 46 45 44 41 40 36 35 36 38 40 40 40 40 41 42 42 42 42 40 39 40 41 41 41 39 39 40 42 42 42
52 45 43 43 44 49 46 42 42 41 41 41 41 41 47 48 48 49 49 50 49 47 47 48 45 42 40 39 35 34 34 33 36 38 39 39 39 40 40 39 36 36 36 39 41 39 38 37 37 39 40 40 41 43
36 37 39 39 40 37 34 34 36 35 36 36 39 41 41 41 45 48 48 44 44 45 45 42 40 38 33 34 32 33 33 33 34 36 38 37 37 38 35 33 33 34 38 39 35 35 35 34 35 35 36 38 41 42
27 31 34 35 34 32 29 25 24 26 28 34 36 35 35 35 42 52 44 42 40 37 33 32 32 31 32 33 32 33 33 34 36 36 36 35 35 34 33 33 35 36 34 32 31 32 32 32 33 36 38 38 39 39
Wind_Direction
259 260 257 262 264 266 265 259 263 274 272 289 302 294 265 281 294 309 318 324 329 324 338 358 359 2 352 5 359 4 9 7 5 6 4 6 12 10 7 10 8 5 5 7 8 8 7 7 6 8 9 10 9 8
259 259 261 264 268 268 263 267 269 265 271 278 278 284 296 282 276 284 289 312 322 317 316 319 325 328 340 330 335 348 345 345 343 351 351 350 350 356 357 353 353 353 354 355 356 358 359 360 359 358 0 3 4 5
260 264 266 265 264 265 263 265 268 268 269 273 277 278 283 289 292 287 275 288 292 291 297 306 315 318 314 325 311 322 324 328 332 334 337 338 344 338 340 340 344 342 344 346 346 347 349 350 350 352 353 353 354 354
260 265 265 261 259 264 262 259 262 265 270 272 273 275 280 280 282 284 281 280 285 296 294 289 290 295 305 309 319 304 303 318 318 324 323 323 329 330 329 329 333 332 335 336 338 338 338 340 343 344 345 345 346 347
257 260 262 260 261 263 265 262 262 262 261 264 267 269 275 277 282 283 280 281 280 281 285 281 288 287 288 287 296 305 299 299 306 308 317 310 313 320 319 320 320 320 324 326 328 329 331 334 336 336 338 339 341 342
255 255 258 260 261 263 261 263 259 259 264 264 263 265 268 272 275 275 278 277 275 277 280 283 281 287 286 285 278 293 292 285 292 300 303 304 303 306 311 309 313 312 315 316 319 322 323 324 327 326 330 332 335 337
254 254 258 260 258 264 264 259 260 259 260 262 263 263 266 268 269 272 274 275 276 276 278 282 285 284 285 287 279 274 279 281 286 289 284 285 288 298 301 306 307 306 307 311 313 316 318 321 322 323 325 329 330 332
254 256 257 258 261 263 263 262 256 258 259 261 261 263 264 265 269 270 271 273 274 275 278 278 284 286 285 284 283 283 279 278 276 279 281 287 291 292 293 298 300 304 305 307 309 312 315 316 319 320 322 324 325 328
254 255 258 257 260 263 263 262 262 258 261 264 262 263 264 265 270 271 271 270 271 275 277 278 280 282 285 287 285 282 283 282 281 279 281 283 285 285 290 292 294 296 299 303 303 305 307 310 313 315 317 319 321 322
256 260 262 259 259 261 264 263 263 263 263 263 265 266 267 267 269 269 272 272 277 273 273 277 280 282 282 281 281 281 279 279 279 277 279 282 284 283 285 288 291 293 296 298 300 303 303 305 308 312 313 314 317 318
256 257 258 257 259 263 265 261 261 264 265 265 264 267 266 266 269 272 273 277 279 280 277 275 279 281 278 277 279 280 281 278 275 276 277 277 278 281 282 284 286 288 291 293 295 298 300 303 305 309 311 313 313 313
254 254 257 259 260 260 261 261 262 260 262 263 263 267 266 267 270 270 272 273 276 276 276 275 277 281 279 276 278 279 278 279 281 277 273 272 276 277 279 281 283 285 287 290 293 295 298 300 303 306 309 311 313 312
257 255 255 260 261 263 261 261 261 261 258 258 260 263 262 263 266 269 271 274 275 275 275 278 279 280 278 277 277 279 278 276 277 277 279 279 276 276 276 277 279 282 285 287 288 290 293 296 299 301 304 306 308 310
256 260 263 264 265 262 262 260 262 260 258 260 263 261 261 263 264 266 264 265 268 269 270 273 275 275 274 275 276 277 278 278 278 278 280 278 280 282 282 278 278 280 281 283 285 287 290 292 295 297 300 302 304 306
260 260 262 260 260 262 261 259 260 259 260 260 260 264 265 265 264 263 264 265 266 268 269 271 274 271 266 269 273 275 275 277 278 278 276 277 279 280 280 282 283 280 282 285 284 285 287 289 293 294 298 299 300 302
256 259 258 258 261 260 259 262 258 260 259 260 261 265 267 266 264 263 264 265 266 268 272 269 271 271 272 269 272 273 274 277 276 276 278 279 278 278 277 281 282 280 282 283 285 284 283 285 288 291 296 298 298 299
254 255 255 259 257 259 260 261 261 261 260 262 262 265 266 264 265 265 264 264 264 269 272 268 270 271 271 272 273 276 277 277 277 276 278 278 278 277 278 278 278 277 278 279 281 281 282 283 284 287 291 294 294 295
252 254 258 257 258 261 260 259 261 261 263 265 265 267 265 265 267 267 267 267 264 265 267 269 270 271 271 273 276 275 273 273 273 273 275 277 278 280 278 275 277 274 273 273 276 280 281 282 284 287 291 291 292 291
256 255 256 257 257 259 260 259 259 261 262 264 268 268 266 265 266 266 267 268 267 267 268 270 272 274 273 271 270 268 271 272 271 275 278 277 275 275 273 273 274 273 273 276 278 280 281 282 284 287 287 289 289 289
253 252 254 256 257 257 256 259 261 263 265 265 264 266 264 263 263 264 265 267 266 267 268 270 272 270 267 267 270 271 270 272 274 274 276 276 277 276 275 272 273 274 276 277 278 280 281 283 284 285 286 288 288 286
252 253 253 254 256 257 257 257 259 264 264 262 263 262 261 262 263 263 262 264 267 268 267 268 267 266 268 268 269 271 274 273 275 276 276 275 272 272 272 273 272 274 276 276 277 276 277 281 282 282 284 285 283 284
251 252 253 254 255 256 257 261 262 261 261 263 263 262 259 258 258 259 259 261 264 265 264 265 266 266 268 270 272 274 272 270 268 272 273 270 271 272 272 271 272 272 271 271 272 275 279 277 277 278 276 277 280 283
249 250 252 252 254 257 262 262 261 260 259 258 255 255 256 255 254 255 258 261 261 261 259 260 262 266 268 268 269 270 269 267 267 269 267 266 266 267 268 269 270 270 268 267 268 272 273 272 271 273 274 276 278 281
248 249 250 252 256 260 258 257 257 254 253 251 251 251 251 252 252 253 255 255 257 257 257 258 263 265 268 267 265 268 269 268 269 269 266 266 268 266 267 267 266 265 264 265 266 265 266 267 270 271 272 275 276 278
248 249 251 254 254 252 249 251 251 251 250 247 247 249 248 249 250 251 251 250 249 250 258 262 264 266 263 263 265 265 268 269 266 263 262 262 263 265 266 267 266 263 261 261 261 260 261 265 266 268 271 274 275 281
250 251 251 251 250 249 247 247 249 249 247 248 248 248 248 249 250 247 246 246 250 253 257 258 260 260 261 264 265 265 266 264 262 261 264 261 259 257 261 264 260 258 259 259 258 258 259 262 265 268 269 273 280 285
250 248 245 244 245 245 243 243 243 244 245 245 245 245 246 246 246 241 242 245 249 252 255 258 257 259 260 262 262 261 262 259 257 259 258 256 257 255 256 258 258 258 255 253 254 255 256 259 263 266 270 277 284 286
238 237 236 237 236 238 239 242 243 242 243 243 243 243 241 240 238 242 247 250 250 253 255 256 255 253 255 256 258 259 259 258 258 257 256 255 256 256 254 253 255 256 255 253 254 257 259 261 265 272 280 286 286 285
232 234 235 237 238 238 240 240 241 242 241 242 242 242 238 236 240 245 247 248 248 248 247 247 247 249 251 252 254 255 254 252 251 252 252 252 252 251 248 250 253 254 254 257 259 259 262 268 274 283 285 284 283 285
233 234 233 236 239 240 239 239 241 242 243 241 239 237 237 238 239 243 246 244 242 243 246 247 248 251 254 255 255 254 253 250 247 249 250 249 250 250 249 250 253 257 260 261 261 262 266 273 279 281 281 280 282 283
236 237 240 240 240 241 242 243 243 242 241 241 240 239 240 242 243 242 241 241 240 241 241 242 244 247 250 252 253 253 250 248 249 249 250 250 251 253 254 256 258 261 263 263 265 270 273 275 277 278 278 280 281 284
249 237 237 240 242 244 244 241 240 239 239 238 235 233 236 239 243 245 242 241 242 242 242 245 247 251 251 252 251 248 247 246 245 246 248 249 252 255 258 260 262 262 262 266 270 271 275 278 278 279 277 278 285 289
264 251 244 242 241 240 239 238 239 238 235 235 235 234 234 232 241 243 238 235 236 239 243 245 249 249 246 246 245 241 239 241 244 246 249 252 253 256 258 259 259 262 264 268 274 276 277 276 275 275 279 285 288 293